Fort Polk, LA

8:03 PM CDT on October 14, 2019 (GMT -0500)
Fort Polk

Weather History for KAQV - August, 2019

Change the Weather History Date:

Thursday, August 15, 2019

  Actual Average (WUND) Record (WUND)
Temperature  
Mean Temperature 86 °F -  
Max Temperature 98 °F - - (-1)
Min Temperature 75 °F - - (-1)
Cooling Degree Days 21    
Growing Degree Days 36 (Base 50)    
Moisture  
Dew Point 73 °F    
Average Humidity 76    
Maximum Humidity 94    
Minimum Humidity 41    
Precipitation  
Precipitation 0.00 in - - ()
Sea Level Pressure  
Sea Level Pressure 29.95 in    
Wind  
Wind Speed 1 mph (NE)    
Max Wind Speed 6 mph    
Max Gust Speed -    
Visibility 8 miles    
Events      
Averages and records for this station are not official NWS values.
T = Trace of Precipitation, MM = Missing Value Source: NWS Daily Summary

Daily Weather History Graph

Daily Weather History Graph

Search for Another Location

Airport or City:

Astronomy

Aug. 15, 2019 Rise Set
Actual Time 6:38 AM CDT 7:56 PM CDT
Civil Twilight 6:12 AM CDT 8:21 PM CDT
Nautical Twilight 5:42 AM CDT 8:52 PM CDT
Astronomical Twilight 5:10 AM CDT 9:23 PM CDT
Moon 8:24 PM CDT 6:36 AM CDT
Length of Visible Light 14h 09m
Length of Day
13h 17m
Full, 100% of the Moon is Illuminated
Aug 15
Full
Aug 23
Last Quarter
Aug 30
New
Sep 5
First Quarter
Sep 13
Full

Hourly Weather History & Observations

Time (CDT) Temp. Heat Index Dew Point Humidity Pressure Visibility Wind Dir Wind Speed Gust Speed Precip Events Conditions
1:56 AM 77.0 °F - 73.0 °F 88% 29.95 in 10.0 mi Calm Calm - N/A   Scattered Clouds
2:56 AM 75.9 °F - 73.0 °F 91% 29.96 in 10.0 mi North 3.5 mph - N/A   Clear
3:56 AM 75.0 °F - 72.0 °F 90% 29.95 in 10.0 mi Calm Calm - N/A   Clear
4:25 AM 75.0 °F - 72.0 °F 90% 29.96 in 10.0 mi Calm Calm - N/A   Scattered Clouds
4:34 AM 75.0 °F - 73.0 °F 94% 29.96 in 10.0 mi Calm Calm - N/A   Mostly Cloudy
4:56 AM 75.0 °F - 73.0 °F 94% 29.95 in 6.0 mi Calm Calm - N/A   Overcast
5:21 AM 75.0 °F - 73.0 °F 94% 29.96 in 1.8 mi Calm Calm - N/A   Overcast
5:41 AM 75.0 °F - 73.0 °F 94% 29.96 in 3.0 mi Calm Calm - N/A   Overcast
5:56 AM 75.0 °F - 73.0 °F 94% 29.95 in 5.0 mi Calm Calm - N/A   Mostly Cloudy
6:56 AM 75.0 °F - 73.0 °F 94% 29.96 in 3.0 mi Calm Calm - N/A   Partly Cloudy
7:40 AM 75.9 °F - 73.9 °F 94% 29.98 in 6.0 mi Calm Calm - N/A   Partly Cloudy
7:56 AM 77.0 °F - 73.9 °F 90% 29.98 in 6.0 mi Calm Calm - N/A   Mostly Cloudy
8:12 AM 79.0 °F - 75.0 °F 88% 29.99 in 9.0 mi Calm Calm - N/A   Scattered Clouds
8:56 AM 82.9 °F 89.4 °F 73.9 °F 74% 29.98 in 10.0 mi NNE 5.8 mph - N/A   Clear
9:56 AM 88.0 °F 96.5 °F 73.9 °F 63% 29.97 in 10.0 mi Variable 4.6 mph - N/A   Clear
10:56 AM 89.1 °F 98.0 °F 73.9 °F 61% 29.98 in 10.0 mi Variable 3.5 mph - N/A   Partly Cloudy
11:56 AM 95.0 °F 104.5 °F 73.0 °F 49% 29.97 in 10.0 mi Variable 4.6 mph - N/A   Scattered Clouds
1:56 PM 87.1 °F 94.5 °F 73.0 °F 63% 29.95 in 10.0 mi Calm Calm - N/A   Clear
2:56 PM 96.1 °F 104.9 °F 72.0 °F 46% 29.91 in 10.0 mi Variable 4.6 mph - N/A   Mostly Cloudy
3:56 PM 97.0 °F 104.8 °F 71.1 °F 43% 29.89 in 10.0 mi Variable 4.6 mph - N/A   Partly Cloudy
4:56 PM 97.0 °F 103.5 °F 70.0 °F 41% 29.88 in 10.0 mi ENE 5.8 mph - N/A   Partly Cloudy
5:56 PM 91.9 °F 99.5 °F 72.0 °F 52% 29.89 in 10.0 mi Calm Calm - N/A   Partly Cloudy
6:56 PM 91.9 °F 99.5 °F 72.0 °F 52% 29.90 in 10.0 mi Variable 3.5 mph - N/A   Partly Cloudy
7:56 PM 87.1 °F 93.6 °F 72.0 °F 61% 29.92 in 10.0 mi Calm Calm - N/A   Clear
8:56 PM 82.9 °F 89.4 °F 73.9 °F 74% 29.93 in 10.0 mi South 3.5 mph - N/A   Clear
9:56 PM 80.1 °F 84.5 °F 73.9 °F 81% 29.94 in 10.0 mi Calm Calm - N/A   Clear
10:56 PM 75.9 °F - 73.0 °F 91% 29.94 in 10.0 mi Calm Calm - N/A   Clear
11:56 PM 75.0 °F - 72.0 °F 90% 29.94 in 6.0 mi Calm Calm - N/A   Clear